Regional Weather Roundup
Issued by NWS

Home | Current Version | Previous Version | Graphics & Text | Print | Product List | Glossary Off
Versions: 1 2 3 4 5 6 7 8 9 10 11 12 13 14 15 16 17 18 19 20 21 22 23 24 25 26 27 28 29 30 31 32 33 34 35 36 37 38 39 40 41 42 43 44 45 46 47 48 49 50

000
ASUS43 KMKX 112300
RWRWI

WISCONSIN REGIONAL WEATHER ROUNDUP
NATIONAL WEATHER SERVICE MILWAUKEE/SULLIVAN WI
500 PM CST THU FEB 11 2016

NOTE: "FAIR" INDICATES FEW OR NO CLOUDS BELOW 12,000 FEET WITH NO
SIGNIFICANT WEATHER AND/OR OBSTRUCTIONS TO VISIBILITY.

WIZ001-002-006>008-014>016-023>028-120000-
NORTHWEST WISCONSIN

CITY           SKY/WX    TMP DP  RH WIND       PRES   REMARKS
SUPERIOR ARPT  CLOUDY    17  -4  40 W9        30.19R WCI   5
ASHLAND        CLOUDY    13  -4  46 SW9       30.16S WCI   1
HAYWARD        CLOUDY    13  -7  40 SW7       30.16R WCI   3
SIREN          CLOUDY    14  -3  47 W8        30.20S WCI   3
CUMBERLAND     CLOUDY    12   0  57 SW8       30.18R WCI   1
RICE LAKE      CLOUDY    14  -3  47 SW7       30.21S WCI   4
CHETEK         CLOUDY    14  -4  44 W7        30.20S WCI   4
LADYSMITH      CLOUDY    14  -6  40 SW8       30.18S WCI   3
EAU CLAIRE     NOT AVBL
MENOMONIE      CLOUDY    18  -1  43 S8        30.22S WCI   8
NEW RICHMOND   CLOUDY    15   0  52 SW9       30.22R WCI   3
OSCEOLA        CLOUDY    17   1  48 SW7       30.25S WCI   8
$$

WIZ003>005-009-010-017-018-120000-
NORTH CENTRAL WISCONSIN

CITY           SKY/WX    TMP DP  RH WIND       PRES   REMARKS
MANITOWISH WTR CLOUDY    13  -5  45 SW7       30.06F WCI   2
ARBOR VITAE    MOCLDY    15  -3  45 SW6       30.08F WCI   6
WOODRUFF       MOCLDY    15  -3  45 SW6       30.08F WCI   6
RHINELANDER    CLOUDY    12  -4  48 W6        30.09F WCI   3
EAGLE RIVER    CLOUDY    13  -5  43 W9        30.08F WCI   1
LAND O LAKES   PTCLDY    14  -2  49 SW5       30.08S WCI   6
PHILLIPS       CLOUDY    13  -4  47 SW8       30.11S WCI   2
TOMAHAWK       CLOUDY    15  -8  36 W7        30.13S WCI   5
MEDFORD        CLOUDY    11  -3  52 SW6       30.14F WCI   1
MERRILL        CLOUDY    13  -1  54 SW10      30.15S WCI   0
$$

WIZ029-030-035-036-043>047-120000-
CENTRAL WISCONSIN

CITY           SKY/WX    TMP DP  RH WIND       PRES   REMARKS
WAUSAU         CLOUDY    13  -4  46 W8        30.16S WCI   2
MOSINEE        CLOUDY    12  -2  52 W7        30.18S WCI   2
MARSHFIELD     CLOUDY    15  -6  39 W3        30.16F
STEVENS POINT  PTCLDY    13  -5  44 W5        30.19F WCI   6
WAUPACA        CLEAR     20  -3  36 W7        30.21F WCI  11
WAUTOMA        NOT AVBL
WISC RAPIDS    MOCLDY    18  -7  32 W6        30.21F WCI  10
CAMP DOUGLAS   NOT AVBL
$$

WIZ011>013-019>022-031-037>040-048>050-120000-
NORTHEAST WISCONSIN

CITY           SKY/WX    TMP DP  RH WIND       PRES   REMARKS
ANTIGO         CLOUDY    12  -2  52 W10       30.11F WCI  -1
SHAWANO        CLEAR     20  -6  31 W5        30.19S WCI  13
OCONTO         CLEAR     18   0  44 SW8       30.19S WCI   8
STURGEON BAY   CLEAR     16   0  48 SW12G17   30.20S WCI   3
GREEN BAY      CLEAR     16  -2  45 SW8       30.20F WCI   5
MANITOWOC      NOT AVBL
APPLETON       PTCLDY    16  -6  38 SW14      30.19S WCI   1
CLINTONVILLE   CLEAR     19  -8  30 W7        30.19F WCI  10
OSHKOSH        CLEAR     16  -2  45 CALM      30.22S
$$

WIZ032>034-041-042-053>061-120000-
SOUTHWEST WISCONSIN

CITY           SKY/WX    TMP DP  RH WIND       PRES   REMARKS
LA CROSSE      MOCLDY    16  -1  47 S10       30.26R WCI   4
SPARTA         CLEAR     19  -3  39 SW3       30.24F
VIROQUA        CLEAR     15  -1  49 SW9       30.21S WCI   3
BOSCOBEL       PTCLDY    19   1  45 SW8       30.27S WCI   9
PRAIRIE DU CHI CLOUDY    18  -2  41 SW5       30.28S WCI  11
PLATTEVILLE    CLOUDY    17   3  54 CALM      30.24F
$$

WIZ056-057-062-063-064-067-068-120000-
SOUTH CENTRAL WISCONSIN

CITY           SKY/WX    TMP DP  RH WIND       PRES   REMARKS
REEDSBURG      CLEAR     18  -4  38 SW7       30.23F WCI   8
BARABOO/DELLS  CLEAR     17  -6  35 SW8       30.22F WCI   7
LONE ROCK      NOT AVBL
MINERAL POINT  PTCLDY    18   0  45 W5        30.23S WCI  11
MADISON        PTCLDY    18  -5  36 VRB3      30.23F
MIDDLETON      MOCLDY    20   0  40 SW7       30.24F WCI  11
WATERTOWN      CLEAR     17  -1  44 W6        30.25S WCI   8
MONROE         MOCLDY    21   3  45 W5        30.23F WCI  15
JANESVILLE     PTCLDY    21   0  39 W7        30.26S WCI  13
$$

WIZ051-052-058>065-066-070>072-120000-
SOUTHEAST WISCONSIN

CITY           SKY/WX    TMP DP  RH WIND       PRES   REMARKS
MILWAUKEE      PTCLDY    19  -2  39 W7        30.26F WCI  10
WAUKESHA       CLEAR     16  -2  45 SW7       30.25F WCI   6
MILWAUKEE/TIMM CLEAR     18  -2  41 W8        30.26S WCI   7
RACINE         CLEAR     18   0  45 W7        30.28S WCI   9
BURLINGTON     CLEAR     17   1  49 W5        30.26S WCI  10
KENOSHA        CLEAR     18   3  52 W7        30.26S WCI   9
FOND DU LAC    CLEAR     15  -1  49 SW7       30.23S WCI   5
SHEBOYGAN      CLEAR     13   1  59 W8        30.23S WCI   2
WEST BEND      CLEAR     16   0  48 CALM      30.23S
JUNEAU         CLEAR     15   1  53 SW8       30.25S WCI   4
$$

LSZ147-162-120000-
LAKE SUPERIOR

STATION/POSITION TIME  TEMP    WIND        PRES    WAVE
                       AIR SEA DIR/SP/G            HT/PER
                 (UTC) (F)     (DEG/KT/KT) (MB)    (FT/S)
DEVILS ISLAND    2200   15     240/ 20/ 24 1021.9F
PORT WING        2200   15     250/ 10/ 15 1021.7
SAXON HARBOR     2230   16                 1020.7F
$$

LMZ867-665-643>646-120000-
LAKE MICHIGAN

STATION/POSITION TIME  TEMP    WIND        PRES    WAVE
                       AIR SEA DIR/SP/G            HT/PER
                 (UTC) (F)     (DEG/KT/KT) (MB)    (FT/S)
CHAMBERS ISLAND  2200   17     180/  6/ 10 1021.7F
ALGOMA LAKESHORE 2041          250/  7/ 12   N/A
KEWAUNEE LAKESHO 2200   16                 1022.1F
SHEBOYGAN LAKESH 2200   17     270/  8/  9 1025.5F
PORT WASHINGTON  2200   19     260/  7/ 12 1025.4
MILWAUKEE LAKESH 2210   19     280/  9/ 11   N/A
KENOSHA   LAKESH 2200   20     280/  7/ 12 1025.1S
$$

TC  - TEMPERATURE IN CELSIUS
VSB - VISIBILITY IN STATUTE MILES
WCI - WIND CHILL INDEX
HX  - HEAT INDEX




USA.gov is the U.S. government's official web portal to all federal, state and local government web resources and services.